• Join FlightAware (Why Join?)
  • Login
  • US Flag GB Flag 
13:10 EDT


 

Airport Tracker/Info


-or-


 

Live Flight TrackerFlight Track Log ✈ N137TK ✈ 24-Jan-2014 ✈ KAVL - KAPF

Flight Track Log - Related Links

Times and Time Zones

All times are in EST time to prevent confusion due to time zone crossing. See the N137TK flight status page for this flight to view local times or setup timezone preferences in your user account.

Time Position Orientation Groundspeed Altitude Reporting Facility
EST Latitude Longitude Course Direction KTS MPH feet Rate Location/Type
16:25 35.0819 -82.6022 178° South 195 224 21,000  Level Atlanta Center
16:26 35.0317 -82.6006 178° South 190 219 22,500 1,380 Climbing Atlanta Center
16:27 34.9775 -82.6039 183° South 190 219 23,800 1,320 Climbing Atlanta Center
16:28 34.9275 -82.5997 176° South 190 219 25,200 1,080 Climbing Atlanta Center
16:29 34.8731 -82.5956 176° South 190 219 26,000 360 Climbing Atlanta Center
16:30 34.8083 -82.5917 177° South 212 244 26,000  Level Atlanta Center
16:31 34.7375 -82.5931 181° South 239 275 26,000  Level Atlanta Center
16:32 34.6644 -82.5917 179° South 255 293 26,000  Level Atlanta Center
16:33 34.5872 -82.5906 179° South 271 312 26,000  Level Atlanta Center
16:34 34.5119 -82.5867 178° South 276 318 26,000  Level Atlanta Center
16:35 34.4347 -82.5856 179° South 276 318 26,000  Level Atlanta Center
16:36 34.3594 -82.5844 179° South 271 312 26,000  Level Atlanta Center
16:37 34.2822 -82.5806 178° South 271 312 26,000  Level Atlanta Center
16:38 34.2050 -82.5769 178° South 271 312 26,000  Level Atlanta Center
16:39 34.1217 -82.5758 179° South 271 312 26,000  Level Atlanta Center
16:40 34.0444 -82.5747 179° South 271 312 26,000  Level Atlanta Center
16:41 33.9756 -82.5733 179° South 271 312 26,000  Level Atlanta Center
16:42 33.9003 -82.5722 179° South 271 312 26,000  Level Atlanta Center
16:43 33.8208 -82.5686 178° South 277 319 26,000  Level Atlanta Center
16:44 33.7561 -82.5647 177° South 260 299 26,000  Level Atlanta Center
16:45 33.6811 -82.5633 179° South 259 298 26,000  Level Atlanta Center
16:46 33.5956 -82.5650 179° South 264 304 26,000  Level Atlanta Center
16:47 33.5244 -82.5611 177° South 264 304 26,000  Level Atlanta Center
16:48 33.4514 -82.5600 179° South 269 310 26,000  Level Atlanta Center
16:49 33.3825 -82.5586 179° South 256 295 26,000  Level Atlanta Center
16:50 33.3094 -82.5547 177° South 261 300 26,000  Level Atlanta Center
16:51 33.2406 -82.5536 179° South 255 293 26,000  Level Atlanta Center
16:52 33.1694 -82.5522 179° South 255 293 26,000  Level Atlanta Center
16:53 33.0986 -82.5486 178° South 255 293 26,000  Level Atlanta Center
16:54 33.0275 -82.5497 181° South 255 293 26,000  Level Atlanta Center
16:55 32.9606 -82.5458 177° South 255 293 26,000  Level Atlanta Center
16:57 32.8361 -82.5439 179° South 255 293 26,000  Level Jacksonville Center
16:58 32.7653 -82.5392 177° South 255 293 26,000  Level Jacksonville Center
16:59 32.6942 -82.5347 177° South 255 293 26,000  Level Jacksonville Center
17:00 32.6211 -82.5375 182° South 255 293 26,000  Level Jacksonville Center
17:01 32.5522 -82.5303 175° South 255 293 26,000  Level Jacksonville Center
17:02 32.4814 -82.5356 184° South 255 293 26,000  Level Jacksonville Center
17:03 32.4103 -82.5283 175° South 255 293 26,000  Level Jacksonville Center
17:04 32.3414 -82.5286 180° South 255 293 26,000  Level Jacksonville Center
17:05 32.2683 -82.5264 179° South 255 293 26,000  Level Jacksonville Center
17:06 32.1994 -82.5244 179° South 250 288 26,000  Level Jacksonville Center
17:07 32.1283 -82.5222 178° South 250 288 26,000  Level Jacksonville Center
17:08 32.0575 -82.5200 178° South 250 288 26,000  Level Jacksonville Center
17:09 31.9864 -82.5203 180° South 255 293 26,000  Level Jacksonville Center
17:10 31.9175 -82.5206 180° South 255 293 26,000  Level Jacksonville Center
17:11 31.8486 -82.5158 177° South 255 293 26,000  Level Jacksonville Center
17:12 31.7756 -82.5139 179° South 255 293 26,000  Level Jacksonville Center
17:13 31.7067 -82.5142 180° South 255 293 26,000  Level Jacksonville Center
17:14 31.6314 -82.5119 179° South 255 293 26,000  Level Jacksonville Center
17:15 31.5625 -82.5097 178° South 255 293 26,000  Level Jacksonville Center
17:16 31.4872 -82.4956 171° South 255 293 26,000  Level Jacksonville Center
17:17 31.4142 -82.4739 166° South 262 302 26,000  Level Jacksonville Center
17:18 31.3472 -82.4547 166° South 270 311 26,000  Level Jacksonville Center
17:19 31.2722 -82.4356 168° South 276 318 26,000  Level Jacksonville Center
17:20 31.1989 -82.4164 167° South 276 318 26,000  Level Jacksonville Center
17:21 31.1258 -82.3950 166° South 276 318 26,000  Level Jacksonville Center
17:22 31.0483 -82.3736 167° South 281 323 26,000  Level Jacksonville Center
17:23 30.9711 -82.3522 167° South 281 323 26,000  Level Jacksonville Center
17:24 30.8958 -82.3308 166° South 281 323 26,000  Level Jacksonville Center
17:25 30.8186 -82.3119 168° South 281 323 26,000  Level Jacksonville Center
17:26 30.7433 -82.2883 165° South 281 323 26,000  Level Jacksonville Center
17:27 30.6681 -82.2669 166° South 281 323 26,000  Level Jacksonville Center
17:28 30.5886 -82.2458 167° South 281 323 26,000  Level Jacksonville Center
17:29 30.5047 -82.2200 165° South 281 323 26,000  Level Jacksonville Center
17:30 30.4275 -82.1964 165° South 281 323 26,000  Level Jacksonville Center
17:31 30.3522 -82.1753 166° South 281 323 26,000  Level Jacksonville Center
17:32 30.2769 -82.1564 168° South 281 323 26,000  Level Jacksonville Center
17:33 30.1994 -82.1356 167° South 281 323 26,000  Level Jacksonville Center
17:34 30.1222 -82.1194 170° South 276 318 26,000  Level Jacksonville Center
17:35 30.0469 -82.1056 171° South 276 318 26,000  Level Jacksonville Center
17:36 29.9781 -82.0917 170° South 276 318 26,000  Level Jacksonville Center
17:37 29.9006 -82.0781 171° South 276 318 26,000  Level Jacksonville Center
17:38 29.8253 -82.0619 169° South 276 318 26,000  Level Jacksonville Center
17:39 29.7375 -82.0411 168° South 276 318 26,000  Level Jacksonville Center
17:40 29.6581 -82.0322 174° South 281 323 26,000  Level Jacksonville Center
17:41 29.5808 -82.0161 170° South 281 323 26,000  Level Jacksonville Center
17:42 29.5033 -82.0003 170° South 281 323 26,000  Level Jacksonville Center
17:43 29.4239 -81.9817 168° South 286 329 26,000 -240 Level Jacksonville Center
17:44 29.3444 -81.9683 172° South 286 329 25,600 -540 Descending Jacksonville Center
17:45 29.2611 -81.9522 170° South 297 342 25,000 -240 Descending Jacksonville Center
17:46 29.1333 -81.9211 168° South 297 342 25,000  Level Miami Center
17:47 29.0525 -81.9056 170° South 297 342 25,000  Level Miami Center
17:48 28.9739 -81.8900 170° South 292 336 25,000  Level Miami Center
17:49 28.8950 -81.8747 170° South 292 336 25,000  Level Miami Center
17:50 28.8100 -81.8614 172° South 287 330 25,000  Level Miami Center
17:51 28.7314 -81.8436 169° South 287 330 25,000  Level Miami Center
17:52 28.6567 -81.8308 171° South 287 330 25,000  Level Miami Center
17:53 28.5803 -81.8133 169° South 287 330 25,000  Level Miami Center
17:54 28.5036 -81.7956 168° South 287 330 25,000  Level Miami Center
17:55 28.4272 -81.7733 166° South 287 330 25,000  Level Miami Center
17:56 28.3631 -81.7611 170° South 287 330 25,000 -360 Level Miami Center
17:57 28.2739 -81.7456 171° South 293 337 24,300 -540 Descending Miami Center
17:58 28.1931 -81.7256 168° South 298 343 24,000 -660 Descending Miami Center
17:59 28.1081 -81.7100 171° South 303 349 23,000 -1,020 Descending Miami Center
18:00 28.0231 -81.6922 170° South 308 354 22,000 -1,020 Descending Miami Center
18:01 27.9361 -81.6744 170° South 313 360 21,000 -1,020 Descending Miami Center
18:02 27.8492 -81.6544 169° South 313 360 20,000 -1,080 Descending Miami Center
18:03 27.7600 -81.6367 170° South 313 360 18,900 -1,020 Descending Miami Center
18:04 27.6833 -81.6169 167° South 313 360 18,000 -780 Descending Miami Center
18:05 27.6003 -81.6042 172° South 313 360 17,400 -840 Descending Miami Center
18:06 27.5192 -81.5983 176° South 313 360 16,400 -540 Descending Miami Center
18:07 27.4458 -81.6094 188° South 291 335 16,400 -60 Level Miami Center
18:08 27.3744 -81.6183 186° South 273 314 16,300 -540 Descending Miami Center
18:09 27.3011 -81.6314 189° South 267 307 15,400 -960 Descending Miami Center
18:10 27.2236 -81.6378 184° South 272 313 14,400 -1,020 Descending Miami Center
18:11 27.1481 -81.6486 187° South 278 320 13,400 -1,020 Descending Miami Center
18:12 27.0706 -81.6594 187° South 278 320 12,400 -1,080 Descending Miami Center
18:13 26.9867 -81.6697 186° South 273 314 11,300 -1,020 Descending Miami Center
18:14 26.9094 -81.6714 181° South 273 314 10,400 -960 Descending Miami Center
18:15 26.8325 -81.6564 170° South 273 314 9,400 -1,020 Descending Miami Center
18:16 26.7539 -81.6417 171° South 278 320 8,400 -1,020 Descending Miami Center
18:17 26.6869 -81.6436 181° South 277 319 7,400 -1,020 Descending Miami Center
18:18 26.6153 -81.6639 194° South 272 313 6,400 -1,020 Descending Miami Center
18:19 26.5458 -81.6797 192° South 262 302 5,400 -960 Descending Miami Center
18:20 26.4786 -81.6953 192° South 257 296 4,500 -900 Descending Miami Center
18:21 26.4131 -81.7206 199° South 252 290 3,600 -900 Descending Miami Center
18:23 26.3277 -81.7355 189° South  Level FlightAware Approximate
18:30 26.1500 -81.7667 186° South  Level FlightAware Approximate
18:31 26.1524 -81.7756 186° South  Level Estimated
18:32 26.1524 -81.7756 186° South  Level Estimated
18:33 26.1524 -81.7756 186° South  Level Estimated
18:34 26.1524 -81.7756 186° South  Level Estimated
18:35 26.1524 -81.7756 186° South  Level Estimated
18:36 26.1524 -81.7756 186° South  Level Estimated